When you browse on this site, cookies collect data to enhance your experience and personalize the content and advertising you see.
Visit our Privacy Policy to learn more. By continuing to use the site, you agree to this use of cookies and data.
  • In Hungary
  • List of Countries
  • For 7 days
  • Water Temperature
  • Weather Map
  • News
  • Weather Widgets
  • user-avatar
    Login

    Hourly Weather Dobieszyn

    Today, 15 September, Sunday

    Time Temperature Precipitation Wind Pressure Humidity
    00:00 +10°C° 0 mm 2 mps 758 mmHg 71%
    01:00 +10°C° 0 mm 2 mps 757 mmHg 72%
    02:00 +9°C° 0 mm 2 mps 757 mmHg 72%
    03:00 +9°C° 0 mm 2 mps 757 mmHg 73%
    04:00 +9°C° 0 mm 2 mps 756 mmHg 74%
    05:00 +10°C° 0 mm 3 mps 756 mmHg 72%
    06:00 +10°C° 0 mm 3 mps 756 mmHg 69%
    07:00 +11°C° 0 mm 4 mps 755 mmHg 67%
    08:00 +13°C° 0 mm 4 mps 755 mmHg 61%
    09:00 +15°C° 0 mm 5 mps 754 mmHg 54%
    10:00 +17°C° 0 mm 5 mps 754 mmHg 48%
    11:00 +19°C° 0 mm 6 mps 753 mmHg 46%
    12:00 +20°C° 0 mm 6 mps 752 mmHg 44%
    13:00 +21°C° 0 mm 6 mps 751 mmHg 42%
    14:00 +21°C° 0 mm 6 mps 751 mmHg 44%
    15:00 +21°C° 0 mm 5 mps 750 mmHg 47%
    16:00 +21°C° 0 mm 5 mps 749 mmHg 50%
    17:00 +20°C° 0 mm 5 mps 749 mmHg 55%
    18:00 +19°C° 0 mm 4 mps 749 mmHg 60%
    19:00 +17°C° 0 mm 4 mps 749 mmHg 64%
    20:00 +16°C° 0 mm 5 mps 749 mmHg 66%
    21:00 +16°C° 0 mm 5 mps 748 mmHg 68%
    22:00 +16°C° 0 mm 5 mps 748 mmHg 70%
    23:00 +15°C° 0 mm 5 mps 748 mmHg 67%

    Tomorrow, 16 September, Monday

    Time Temperature Precipitation Wind Pressure Humidity
    00:00 +15°C° 0 mm 5 mps 748 mmHg 65%
    01:00 +14°C° 0 mm 4 mps 748 mmHg 62%
    02:00 +14°C° 0 mm 4 mps 748 mmHg 61%
    03:00 +14°C° 0 mm 4 mps 748 mmHg 60%
    04:00 +15°C° 0 mm 4 mps 748 mmHg 59%
    05:00 +14°C° 0 mm 4 mps 748 mmHg 61%
    06:00 +14°C° 0 mm 4 mps 748 mmHg 63%
    07:00 +14°C° 0 mm 4 mps 747 mmHg 65%
    08:00 +14°C° 0.1 mm 5 mps 747 mmHg 68%
    09:00 +14°C° 0.1 mm 5 mps 747 mmHg 71%
    10:00 +13°C° 0.1 mm 5 mps 748 mmHg 74%
    11:00 +13°C° 0.2 mm 5 mps 747 mmHg 74%
    12:00 +13°C° 0.2 mm 5 mps 747 mmHg 74%
    13:00 +13°C° 0.2 mm 5 mps 747 mmHg 74%
    14:00 +13°C° 0 mm 5 mps 747 mmHg 73%
    15:00 +13°C° 0 mm 5 mps 747 mmHg 72%
    16:00 +14°C° 0 mm 5 mps 746 mmHg 71%
    17:00 +13°C° 0 mm 5 mps 746 mmHg 74%
    18:00 +12°C° 0 mm 4 mps 746 mmHg 77%
    19:00 +11°C° 0 mm 4 mps 746 mmHg 80%
    20:00 +11°C° 0.1 mm 4 mps 746 mmHg 82%
    21:00 +11°C° 0.1 mm 4 mps 745 mmHg 85%
    22:00 +11°C° 0.1 mm 4 mps 745 mmHg 87%
    23:00 +11°C° 0 mm 4 mps 745 mmHg 85%

    Day after tomorrow, 17 September, Tuesday

    Time Temperature Precipitation Wind Pressure Humidity
    00:00 +11°C° 0 mm 4 mps 745 mmHg 83%
    01:00 +11°C° 0 mm 4 mps 745 mmHg 80%
    02:00 +10°C° 0 mm 4 mps 745 mmHg 80%
    03:00 +8°C° 0 mm 4 mps 745 mmHg 80%
    04:00 +8°C° 0 mm 4 mps 745 mmHg 80%
    05:00 +8°C° 0 mm 5 mps 745 mmHg 77%
    06:00 +9°C° 0 mm 6 mps 745 mmHg 74%
    07:00 +9°C° 0 mm 6 mps 745 mmHg 72%
    08:00 +10°C° 0 mm 7 mps 745 mmHg 67%
    09:00 +11°C° 0 mm 7 mps 745 mmHg 61%
    10:00 +13°C° 0 mm 8 mps 745 mmHg 56%
    11:00 +13°C° 0.1 mm 8 mps 744 mmHg 54%
    12:00 +13°C° 0.1 mm 8 mps 744 mmHg 52%
    13:00 +15°C° 0.1 mm 8 mps 743 mmHg 50%
    14:00 +13°C° 0.2 mm 9 mps 743 mmHg 53%
    15:00 +13°C° 0.2 mm 9 mps 743 mmHg 56%
    16:00 +12°C° 0.2 mm 9 mps 742 mmHg 59%
    17:00 +11°C° 0.3 mm 8 mps 742 mmHg 65%
    18:00 +10°C° 0.3 mm 7 mps 742 mmHg 70%
    19:00 +9°C° 0.3 mm 6 mps 742 mmHg 76%
    20:00 +8°C° 0 mm 6 mps 743 mmHg 76%
    21:00 +7°C° 0 mm 6 mps 743 mmHg 76%
    22:00 +6°C° 0 mm 7 mps 743 mmHg 76%
    23:00 +6°C° 0 mm 7 mps 743 mmHg 77%

    18 September, Wednesday

    Time Temperature Precipitation Wind Pressure Humidity
    00:00 +5°C° 0 mm 7 mps 743 mmHg 78%
    01:00 +5°C° 0 mm 8 mps 743 mmHg 79%
    02:00 +5°C° 0 mm 8 mps 744 mmHg 79%
    03:00 +5°C° 0 mm 7 mps 744 mmHg 80%
    04:00 +5°C° 0 mm 7 mps 744 mmHg 81%
    05:00 +5°C° 0 mm 8 mps 745 mmHg 79%
    06:00 +6°C° 0 mm 8 mps 745 mmHg 77%
    07:00 +6°C° 0 mm 8 mps 746 mmHg 75%
    08:00 +7°C° 0 mm 8 mps 746 mmHg 70%
    09:00 +9°C° 0 mm 8 mps 747 mmHg 65%
    10:00 +11°C° 0 mm 8 mps 747 mmHg 59%
    11:00 +11°C° 0 mm 8 mps 747 mmHg 56%
    12:00 +12°C° 0 mm 8 mps 747 mmHg 54%
    13:00 +13°C° 0 mm 8 mps 747 mmHg 51%
    14:00 +13°C° 0 mm 8 mps 748 mmHg 50%
    15:00 +14°C° 0 mm 7 mps 748 mmHg 49%
    16:00 +12°C° 0 mm 7 mps 748 mmHg 48%
    17:00 +11°C° 0.1 mm 6 mps 748 mmHg 56%
    18:00 +9°C° 0.1 mm 5 mps 748 mmHg 65%
    19:00 +8°C° 0.1 mm 4 mps 749 mmHg 73%
    20:00 +8°C° 0 mm 4 mps 749 mmHg 76%
    21:00 +7°C° 0 mm 4 mps 749 mmHg 79%
    22:00 +8°C° 0 mm 3 mps 749 mmHg 81%
    23:00 +7°C° 0 mm 3 mps 750 mmHg 84%

    19 September, Thursday

    Time Temperature Precipitation Wind Pressure Humidity
    00:00 +7°C° 0 mm 3 mps 750 mmHg 86%
    01:00 +5°C° 0 mm 3 mps 750 mmHg 88%
    02:00 +5°C° 0 mm 3 mps 750 mmHg 89%
    03:00 +5°C° 0 mm 3 mps 750 mmHg 90%
    04:00 +5°C° 0 mm 3 mps 750 mmHg 91%
    05:00 +5°C° 0 mm 3 mps 750 mmHg 87%
    06:00 +7°C° 0 mm 3 mps 750 mmHg 84%
    07:00 +7°C° 0 mm 4 mps 750 mmHg 80%
    08:00 +8°C° 0 mm 4 mps 750 mmHg 72%
    09:00 +11°C° 0 mm 4 mps 750 mmHg 64%
    10:00 +13°C° 0 mm 5 mps 751 mmHg 56%
    11:00 +13°C° 0.2 mm 5 mps 750 mmHg 54%
    12:00 +14°C° 0.2 mm 5 mps 750 mmHg 51%
    13:00 +14°C° 0.2 mm 6 mps 750 mmHg 49%
    14:00 +14°C° 0.3 mm 5 mps 750 mmHg 51%
    15:00 +13°C° 0.3 mm 5 mps 750 mmHg 54%
    16:00 +13°C° 0.3 mm 5 mps 751 mmHg 57%
    17:00 +11°C° 0.3 mm 4 mps 751 mmHg 63%
    18:00 +10°C° 0.3 mm 4 mps 751 mmHg 70%
    19:00 +9°C° 0.3 mm 3 mps 752 mmHg 77%
    20:00 +8°C° 0.1 mm 3 mps 752 mmHg 77%
    21:00 +8°C° 0.1 mm 3 mps 752 mmHg 76%
    22:00 +7°C° 0.1 mm 3 mps 753 mmHg 75%
    23:00 +6°C° 0 mm 4 mps 753 mmHg 77%

    20 September, Friday

    Time Temperature Precipitation Wind Pressure Humidity
    00:00 +5°C° 0 mm 4 mps 753 mmHg 78%
    01:00 +3°C° 0 mm 5 mps 753 mmHg 79%
    02:00 +3°C° 0 mm 5 mps 753 mmHg 80%
    03:00 +3°C° 0 mm 6 mps 753 mmHg 82%
    04:00 +4°C° 0 mm 6 mps 754 mmHg 83%
    05:00 +4°C° 0 mm 6 mps 754 mmHg 82%
    06:00 +4°C° 0 mm 6 mps 754 mmHg 81%
    07:00 +4°C° 0 mm 6 mps 755 mmHg 80%
    08:00 +7°C° 0 mm 6 mps 755 mmHg 70%
    09:00 +9°C° 0 mm 6 mps 756 mmHg 59%
    10:00 +10°C° 0 mm 6 mps 756 mmHg 49%
    11:00 +12°C° 0.1 mm 5 mps 756 mmHg 48%
    12:00 +13°C° 0.1 mm 5 mps 756 mmHg 47%
    13:00 +13°C° 0.1 mm 5 mps 755 mmHg 46%
    14:00 +13°C° 0.1 mm 5 mps 755 mmHg 47%
    15:00 +13°C° 0.1 mm 5 mps 755 mmHg 47%
    16:00 +13°C° 0.1 mm 5 mps 755 mmHg 47%
    17:00 +11°C° 0 mm 4 mps 756 mmHg 53%
    18:00 +9°C° 0 mm 3 mps 756 mmHg 59%
    19:00 +8°C° 0 mm 3 mps 756 mmHg 65%
    20:00 +7°C° 0 mm 3 mps 756 mmHg 65%
    21:00 +7°C° 0 mm 3 mps 756 mmHg 66%
    22:00 +5°C° 0 mm 3 mps 756 mmHg 66%
    23:00 +5°C° 0 mm 3 mps 756 mmHg 66%
    Show more